,

(GMT )
Manston

Weather History for EGMH - December, 2012

Change the Weather History Date:

Tuesday, December 11, 2012

  Actual Average Record
Temperature  
Mean Temperature 35 °F -  
Max Temperature 40 °F - - ()
Min Temperature 28 °F - - ()
Degree Days  
Heating Degree Days 30    
Moisture  
Dew Point 32 °F    
Average Humidity 88    
Maximum Humidity 100    
Minimum Humidity 76    
Precipitation  
Precipitation 0.04 in - - ()
Sea Level Pressure  
Sea Level Pressure 30.36 in    
Wind  
Wind Speed 9 mph ()    
Max Wind Speed 15 mph    
Max Gust Speed 21 mph    
Visibility 6.3 miles    
Events Fog , Rain , Snow    
T = Trace of Precipitation, MM = Missing Value Source: Averaged Metar Reports

Daily Weather History Graph

Daily Weather History Graph

Search for Another Location

Airport or City:

Trip Planner

Search our weather history database for the weather conditions in past years. The results will help you decide how hot, cold, wet, or windy it might be!

Date:

Astronomy

Dec. 11, 2012 Rise Set
Actual Time 7:49 AM GMT 3:46 PM GMT
Civil Twilight 7:09 AM GMT 4:26 PM GMT
Nautical Twilight 6:27 AM GMT 5:08 PM GMT
Astronomical Twilight 5:46 AM GMT 5:49 PM GMT
Moon 5:18 AM GMT (12/11) 2:18 PM GMT (12/11)
Length of Visible Light 9h 16m
Length of Day
7h 56m
Waning Crescent, 5% of the Moon is Illuminated
Dec 11
Waning Crescent
Dec 13
New
Dec 20
First Quarter
Dec 28
Full
Jan 5
Last Quarter

Hourly Weather History & Observations

Time (GMT) Temp. Windchill Dew Point Humidity Pressure Visibility Wind Dir Wind Speed Gust Speed Precip Events Conditions
2:50 AM 37 °F - 33 °F 82% 30.33 in 17 mi North 12.7 mph - -  
5:50 AM 37 °F - 35 °F 87% 30.36 in 19 mi North 11.5 mph - -  
6:20 AM 35.6 °F 27.1 °F 32.0 °F 87% 30.36 in 6.2 mi North 12.7 mph - N/A   Mostly Cloudy
7:50 AM 35.6 °F 27.5 °F 33.8 °F 93% 30.36 in 6.2 mi North 11.5 mph - N/A Rain Rain
8:20 AM 37.4 °F 29.8 °F 32.0 °F 81% 30.36 in 6.2 mi NNE 11.5 mph - N/A   Mostly Cloudy
8:50 AM 37 °F - 34 °F 85% 30.39 in 11 mi North 10.4 mph - - Rain Rain
8:50 AM 37.4 °F 29.8 °F 33.8 °F 87% 30.36 in 6.2 mi NNE 11.5 mph - N/A   Mostly Cloudy
9:20 AM 37.4 °F 29.8 °F 33.8 °F 87% 30.36 in 6.2 mi North 11.5 mph - N/A   Mostly Cloudy
9:50 AM 37.4 °F 29.8 °F 33.8 °F 87% 30.39 in 6.2 mi North 11.5 mph - N/A   Mostly Cloudy
10:20 AM 37.4 °F 29.3 °F 32.0 °F 81% 30.39 in 6.2 mi North 12.7 mph - N/A   Partly Cloudy
10:50 AM 37.4 °F 29.8 °F 33.8 °F 87% 30.39 in 6.2 mi North 11.5 mph - N/A   Partly Cloudy
11:20 AM 39.2 °F 31.6 °F 33.8 °F 81% 30.39 in 6.2 mi North 12.7 mph - N/A   Scattered Clouds
11:50 AM 39 °F - 34 °F 76% 30.39 in 28 mi North 10.4 mph - -   Mostly Cloudy
11:50 AM 39.2 °F 32.0 °F 33.8 °F 81% 30.39 in 6.2 mi North 11.5 mph - N/A   Scattered Clouds
12:20 PM 39.2 °F 31.2 °F 35.6 °F 87% 30.36 in 6.2 mi North 13.8 mph - N/A   Scattered Clouds
12:50 PM 39.2 °F 30.8 °F 33.8 °F 81% 30.36 in 6.2 mi North 15.0 mph - N/A   Partly Cloudy
1:20 PM 39.2 °F 32.0 °F 33.8 °F 81% 30.36 in 6.2 mi North 11.5 mph - N/A   Partly Cloudy
1:50 PM 39.2 °F 33.0 °F 33.8 °F 81% 30.36 in 6.2 mi North 9.2 mph - N/A   Scattered Clouds
2:20 PM 39.2 °F 33.6 °F 33.8 °F 81% 30.36 in 6.2 mi North 8.1 mph - N/A   Scattered Clouds
2:50 PM 38 °F - 33 °F 77% 30.38 in 25 mi North 9.2 mph - -  
2:50 PM 37.4 °F 30.8 °F 32.0 °F 81% 30.36 in 6.2 mi North 9.2 mph - N/A   Scattered Clouds
3:20 PM 37.4 °F 32.1 °F 32.0 °F 81% 30.36 in 6.2 mi North 6.9 mph - N/A   Scattered Clouds
3:50 PM 35.6 °F 28.6 °F 32.0 °F 87% 30.36 in 6.2 mi North 9.2 mph - N/A   Scattered Clouds
4:20 PM 33.8 °F 28.6 °F 30.2 °F 87% 30.36 in 6.2 mi North 5.8 mph - N/A   Partly Cloudy
4:50 PM 33.8 °F 30.8 °F 30.2 °F 87% 30.36 in 6.2 mi ENE 3.5 mph - N/A   Scattered Clouds
5:20 PM 35.6 °F - 32.0 °F 87% 30.36 in 6.2 mi North 2.3 mph - N/A   Mostly Cloudy
5:50 PM 33 °F - 31 °F 92% 30.38 in 11 mi NNW 4.6 mph - -   Scattered Clouds
5:50 PM 33.8 °F 29.6 °F 30.2 °F 87% 30.36 in 6.2 mi North 4.6 mph - N/A   Scattered Clouds
6:20 PM 32.0 °F 25.6 °F 30.2 °F 93% 30.36 in 6.2 mi NNW 6.9 mph 20.7 mph N/A   Partly Cloudy
6:50 PM 30.2 °F 23.4 °F 30.2 °F 100% 30.36 in - NW 6.9 mph - N/A   Clear
7:20 PM 30.2 °F 23.4 °F 30.2 °F 100% 30.36 in - NW 6.9 mph - N/A   Clear
7:50 PM 30.2 °F 24.3 °F 28.4 °F 93% 30.36 in - West 5.8 mph - N/A   Clear
8:20 PM 30.2 °F 23.4 °F 28.4 °F 93% 30.36 in 6.2 mi West 6.9 mph - N/A   Partly Cloudy
8:50 PM 32 °F - 32 °F 98% 30.37 in 2 mi NW 6.9 mph - -   Mist
8:50 PM 32.0 °F 24.8 °F 30.2 °F 93% 30.33 in 4.3 mi NW 8.1 mph - N/A   Mostly Cloudy
9:20 PM 32.0 °F 24.2 °F 30.2 °F 93% 30.36 in 3.7 mi WNW 9.2 mph - N/A   Mostly Cloudy
9:50 PM 32.0 °F 24.8 °F 30.2 °F 93% 30.33 in 3.7 mi WNW 8.1 mph - N/A   Mostly Cloudy
10:20 PM 30.2 °F 22.6 °F 30.2 °F 100% 30.33 in 0.6 mi WNW 8.1 mph - N/A Fog Light Freezing Fog
10:50 PM 30.2 °F 23.4 °F 30.2 °F 100% 30.33 in 0.2 mi WNW 6.9 mph - N/A Fog Light Freezing Fog
11:50 PM 28 °F - 28 °F 97% 30.34 in 0 mi WNW 6.9 mph - - Snow Snow Grains